Regional Weather Roundup
Issued by NWS

Home | Current Version | Previous Version | Graphics & Text | Print | Product List | Glossary Off
Versions: 1 2 3 4 5 6 7 8 9 10 11 12 13 14 15 16 17 18 19 20 21 22 23 24 25 26 27 28 29 30 31 32 33 34 35 36 37 38 39 40 41 42 43 44 45 46 47 48 49 50

000
ASUS45 KBOU 061707
RWRCO

WEATHER ROUNDUP FOR COLORADO
NATIONAL WEATHER SERVICE DENVER/BOULDER CO
1000 AM MST FRI MAR 06 2015

NOTE: "FAIR" INDICATES FEW OR NO CLOUDS BELOW 12000 FEET WITH NO
SIGNIFICANT WEATHER AND/OR OBSTRUCTIONS TO VISIBILITY.

COZ001>005-013-030-031-061800-
...NORTHWEST COLORADO...

CITY           SKY/WX    TMP DP  RH WIND       PRES   REMARKS
CRAIG          SUNNY     31  15  52 NE13      30.45S WCI  21
HAYDEN         SUNNY     25  10  54 SE9       30.44S WCI  15
MEEKER         SUNNY     33  16  49 CALM      30.44F
MOUNT WERNER   NOT AVBL
STEAMBOAT SPGS SUNNY     18   9  68 CALM      30.45S
WALDEN         SUNNY     30  12  47 S17       30.38S WCI  18
$$

COZ006>008-011-061800-
...WEST CENTRAL VALLEYS...

CITY           SKY/WX    TMP DP  RH WIND       PRES   REMARKS
GRAND JUNCTION SUNNY     39  17  41 SE9       30.47S
MONTROSE       SUNNY     35  16  45 CALM      30.49S
EAGLE          SUNNY     27  16  63 CALM      30.50F
RIFLE          SUNNY     34  15  46 E5        30.48F WCI  30
DELTA          SUNNY     35  19  52 CALM      30.49F
NUCLA          SUNNY     36  19  51 CALM      30.48F
$$

COZ017>023-064>068-061800-
...SOUTHWEST COLORADO...

CITY           SKY/WX    TMP DP  RH WIND       PRES   REMARKS
DURANGO        SUNNY     32  15  49 E5        30.42S WCI  27
CORTEZ         SUNNY     36  16  44 CALM      30.43S
PAGOSA SPRINGS SUNNY     34   9  34 CALM      30.43R
TELLURIDE      SUNNY     32   3  29 CALM      30.43S
WOLF CREEK PAS SUNNY     28  -4  24 CALM      30.48R
$$

COZ009-010-012-014-032>034-037-058>063-061800-
...CENTRAL COLORADO...

CITY           SKY/WX    TMP DP  RH WIND       PRES   REMARKS
ASPEN          SUNNY     28  10  47 CALM      30.42F
BUENA VISTA    SUNNY     32   4  30 S3        30.39S
COPPER MTN     SUNNY     23   0  36 W6        30.41S WCI  16
BERTHOUD PASS  NOT AVBL
COTTONWOOD PAS SUNNY     32   0  25 SE7       30.39R WCI  26
GUNNISON       SUNNY     10   9  92 E3        30.54S
KREMMLING      SUNNY     19  10  68 CALM      30.49S
LEADVILLE      SUNNY     29   0  28 N6        30.39S WCI  23
SALIDA         SUNNY     38   6  27 N7        30.45F
SUNLIGHT       SUNNY     27   9  46 NW5         N/A  WCI  21
WILKERSON PASS SUNNY     27  -8  22 NW10G21   30.39R WCI  17
$$

COZ069>075-061800-
...SAN LUIS VALLEY/SANGRE DE CRISTO MOUNTAINS...

CITY           SKY/WX    TMP DP  RH WIND       PRES   REMARKS
ALAMOSA        SUNNY     33  14  45 CALM      30.43F
LA VETA PASS   SUNNY     30   3  31 S10G18    30.39R WCI  21
SAGUACHE       SUNNY     34   5  29 CALM      30.43S
$$

COZ035-036-038>040-061800-
...NORTHERN COLORADO FRONT RANGE...

CITY           SKY/WX    TMP DP  RH WIND       PRES   REMARKS
DENVER INTL AP MOSUNNY   41  18  39 S6        30.30R
DMNS CITY PARK   N/A     49  11  22 S6        30.28F
AURORA         MOSUNNY   40  17  39 S8        30.30S
FRONT RANGE AP NOT AVBL
ERIE MUNI ARPT SUNNY     40  18  40 N5        30.29S
BOULDER MUN AP SUNNY     37  14  38 N3        30.29R
CENTENNIAL     MOSUNNY   40  16  37 SE7       30.30R
BROOMFIELD     MOSUNNY   39  18  41 SW3       30.29S
FORT COLLINS   SUNNY     34  18  51 SW3       30.31S
LONGMONT       SUNNY     44  17  33 CALM      30.31S
$$

COZ041-046-047-076>085-087-088-061800-
...PIKES PEAK/PALMER DIVIDE AND SOUTHERN FOOTHILLS...

CITY           SKY/WX    TMP DP  RH WIND       PRES   REMARKS
COLO. SPRINGS  SUNNY     45   9  23 E3        30.32S
A. F. ACADEMY  SUNNY     42  10  27 S6        30.30S
ELLICOTT       NOT AVBL
FALCON         SUNNY     43  11  27 NE6       30.34R
FORT CARSON    SUNNY     40  18  40 W1        30.31R
LIMON          SUNNY     32  18  56 N7        30.32S WCI  26
MONUMENT HILL  SUNNY     39  14  35 CALM      30.31R
TRINIDAD       SUNNY     44  14  29 CALM      30.33S
$$

COZ042>045-048>051-090-091-061800-
...NORTHEAST COLORADO...

CITY           SKY/WX    TMP DP  RH WIND       PRES   REMARKS
GREELEY ARPT   SUNNY     39  19  45 W3        30.29F
AKRON          SUNNY     42  20  41 W13       30.29F
BURLINGTON     SUNNY     51  19  28 W10       30.32R
WRAY           SUNNY     54  18  24 W17G23    30.29F
STERLING       SUNNY     52  19  28 NW14G20   30.27F
HOLYOKE        SUNNY     54  19  26 NW14      30.27S
FORT MORGAN    SUNNY     40  24  54 SW7       30.31F
$$

COZ086-089-092>099-061800-
...SOUTHEAST COLORADO...

CITY           SKY/WX    TMP DP  RH WIND       PRES   REMARKS
PUEBLO         SUNNY     39  22  50 CALM      30.33S
LA JUNTA       SUNNY     43  26  51 MISG      30.34F
LAMAR          SUNNY     44  29  55 NW9       30.34S
SPRINGFIELD      N/A     50  18  28 VRB5      30.33S
$$


USA.gov is the U.S. government's official web portal to all federal, state and local government web resources and services.